Latest Coastal Weather Observations for Northern Endeavour (near 10.5S 126E)

IDD60701

Issued at 12:35 pm CST Wednesday 30 July 2014 (issued every 10 minutes, with the page automatically refreshed every 10 minutes)

About coastal observations | Map of coastal stations | Coastal observations for NT | Marine services | Other Formats
Station Details ID: 200212 Name: NORTHERN ENDEAVOUR Lat: -10.61 Lon: 125.98 Height: 16.0 m
Data from the previous 72 hours. | See also: Recent months for locations in Northern Territory
Date/Time
CST
Temp

°C
Wind Pressure Rain
since 9am
mm
Weather Cloud Vis
km
Sea
Height
m
Swell
Dir
 
Speed
knots
Gust
knots
hPa Trend Height
m
Period
s
Dir
30/12:30pm 27.2 E 8 12 1014.6 - - - Partly cloudy 10 - - - -
30/12:20pm 27.1 E 8 12 1014.7 - - - Partly cloudy 10 - - - -
30/12:10pm 27.2 E 8 11 1014.8 - - - Partly cloudy 10 - - - -
30/12:00pm 27.2 E 9 12 1015.0 - - - Partly cloudy 10 - - - -
30/11:50am 27.2 E 9 13 1015.1 - - - Partly cloudy 10 - - - -
30/11:40am 27.2 E 9 10 1015.3 - - - Partly cloudy 10 - - - -
30/11:30am 27.3 E 11 14 1015.3 - - - Partly cloudy 10 - - - -
30/11:20am 27.2 E 9 9 1015.4 - - - - 10 - - - -
30/11:10am 27.0 E 8 11 1015.5 - - - Partly cloudy 10 - - - -
30/11:00am 27.1 E 9 10 1015.6 - - - Partly cloudy 10 - - - -
30/10:50am 27.2 E 11 11 1015.7 - - - Partly cloudy 10 - - - -
30/10:40am 27.5 E 11 12 1015.9 - - - Partly cloudy 10 - - - -
30/10:30am 27.2 E 10 12 1016.0 - - - Partly cloudy 10 - - - -
30/10:20am 27.8 E 12 13 1016.0 - - - - 10 - - - -
30/10:10am 27.1 E 10 13 1016.1 - - - - 10 - - - -
30/10:00am 27.4 E 12 14 1016.1 - - - Partly cloudy 10 - - - -
30/09:50am 26.9 E 10 12 1016.1 - - - Partly cloudy 10 - - - -
30/09:40am 27.0 E 11 15 1016.1 - - - Partly cloudy 10 - - - -
30/09:30am 26.9 E 10 13 1016.1 - - - Partly cloudy 10 - - - -
30/09:20am 27.0 E 11 14 1016.1 - - - Partly cloudy 10 - - - -
30/09:10am 27.2 E 12 15 1016.0 - - - Partly cloudy 10 - - - -
30/09:00am 26.6 E 12 14 1015.9 - - - Partly cloudy 10 - - - -
30/08:50am 26.6 E 11 12 1015.8 - - - Partly cloudy 10 - - - -
30/08:40am 26.6 E 11 12 1015.8 - - - Partly cloudy 10 - - - -
30/08:30am 28.8 E 10 13 1015.7 - - - Partly cloudy 10 - - - -
30/08:20am 28.3 E 12 14 1015.7 - - - Partly cloudy 10 - - - -
30/08:10am 26.3 E 13 14 1015.7 - - - Partly cloudy 10 - - - -
30/08:00am 26.1 E 11 12 1015.6 - - - Partly cloudy 10 - - - -
30/07:50am 26.1 E 10 11 1015.5 - - - Partly cloudy 10 - - - -
30/07:40am 26.0 E 10 11 1015.4 - - - Partly cloudy 10 - - - -
30/07:30am 26.0 E 10 11 1015.3 - - - Partly cloudy 10 - - - -
30/07:20am 25.8 E 8 12 1015.1 - - - Partly cloudy 10 - - - -
30/07:10am 25.9 E 10 10 1015.0 - - - Partly cloudy 10 - - - -
30/07:00am 26.0 E 10 11 1015.0 - - - Partly cloudy 10 - - - -
30/06:50am 26.0 E 9 12 1014.9 - - - - 10 - - - -
30/06:40am 25.9 E 8 12 1014.8 - - - - 10 - - - -
30/06:30am 25.8 E 8 10 1014.8 - - - - 10 - - - -
30/06:20am 25.8 E 8 9 1014.7 - - - - 10 - - - -
30/06:10am 25.8 E 8 10 1014.7 - - - - 10 - - - -
30/06:00am 25.8 E 7 8 1014.7 - - - - 10 - - - -
30/05:50am 25.8 E 8 9 1014.7 - - - - 10 - - - -
30/05:40am 25.9 E 9 10 1014.7 - - - - 10 - - - -
30/05:30am 25.9 E 9 12 1014.7 - - - - 10 - - - -
30/05:20am 25.9 E 9 13 1014.7 - - - - 10 - - - -
30/05:10am 25.9 E 10 12 1014.7 - - - - 10 - - - -
30/05:00am 25.9 E 10 12 1014.7 - - - - 10 - - - -
30/04:50am 25.8 ENE 13 15 1014.7 - - - - 10 - - - -
30/04:40am 25.8 ENE 12 17 1014.6 - - - Partly cloudy 10 - - - -
30/04:30am 25.8 ENE 12 15 1014.5 - - - Partly cloudy 10 - - - -
30/04:20am 25.8 E 11 17 1014.5 - - - Partly cloudy 10 - - - -
30/04:10am 25.8 E 10 15 1014.4 - - - Partly cloudy 10 - - - -
30/04:00am 25.8 E 8 11 1014.4 - - - Partly cloudy 10 - - - -
30/03:50am 25.8 E 9 14 1014.4 - - - Partly cloudy 10 - - - -
30/03:40am 25.8 E 9 12 1014.4 - - - Partly cloudy 10 - - - -
30/03:30am 25.9 E 9 11 1014.5 - - - Partly cloudy 10 - - - -
30/03:20am 25.8 E 8 11 1014.4 - - - Partly cloudy 10 - - - -
30/03:10am 25.8 E 8 13 1014.4 - - - Partly cloudy 10 - - - -
30/03:00am 25.8 E 8 9 1014.5 - - - Partly cloudy 10 - - - -
30/02:50am 25.9 ENE 7 10 1014.5 - - - - 10 - - - -
30/02:40am 25.9 E 8 9 1014.5 - - - Partly cloudy 10 - - - -
30/02:30am 25.9 ENE 8 12 1014.6 - - - Partly cloudy 10 - - - -
30/02:20am 25.9 ENE 10 14 1014.6 - - - Partly cloudy 10 - - - -
30/02:10am 26.0 ENE 9 10 1014.7 - - - - 10 - - - -
30/02:00am 25.9 ENE 9 13 1014.7 - - - - 10 - - - -
30/01:50am 25.9 ENE 9 13 1014.7 - - - - 10 - - - -
30/01:40am 25.9 ENE 10 14 1014.8 - - - Partly cloudy 10 - - - -
30/01:30am 25.9 ENE 10 14 1014.9 - - - Partly cloudy 10 - - - -
30/01:20am 26.0 ENE 11 14 1014.9 - - - Partly cloudy 10 - - - -
30/01:10am 26.0 ENE 10 16 1014.9 - - - Partly cloudy 10 - - - -
30/01:00am 26.1 E 9 14 1014.9 - - - Partly cloudy 10 - - - -
30/12:50am 26.1 E 9 10 1014.9 - - - Partly cloudy 10 - - - -
30/12:40am 26.2 E 9 11 1014.9 - - - Partly cloudy 10 - - - -
30/12:30am 26.2 E 10 13 1014.9 - - - Partly cloudy 10 - - - -
30/12:20am 26.2 E 9 12 1014.9 - - - Partly cloudy 10 - - - -
30/12:10am 26.3 E 10 15 1014.9 - - - Partly cloudy 10 - - - -
30/12:00am 26.3 E 10 13 1014.9 - - - Partly cloudy 10 - - - -
 
Date/Time
CST
Temp

°C
Wind Pressure Rain
since 9am
mm
Weather Cloud Vis
km
Sea
Height
m
Swell
Dir
 
Speed
knots
Gust
knots
hPa Trend Height
m
Period
s
Dir
29/11:50pm 26.4 E 11 14 1015.0 - - - Partly cloudy 10 - - - -
29/11:40pm 26.4 E 12 13 1015.0 - - - Partly cloudy 10 - - - -
29/11:30pm 26.4 E 12 15 1015.0 - - - Partly cloudy 10 - - - -
29/11:20pm 26.3 E 11 13 1015.0 - - - Partly cloudy 10 - - - -
29/11:10pm 26.4 E 12 12 1015.0 - - - Partly cloudy 10 - - - -
29/11:00pm 26.6 E 14 16 1015.1 - - - Partly cloudy 10 - - - -
29/10:50pm 26.7 E 15 16 1015.1 - - - Partly cloudy 10 - - - -
29/10:40pm 26.7 E 15 17 1015.0 - - - Partly cloudy 10 - - - -
29/10:30pm 26.8 E 15 16 1015.0 - - - Cloudy 10 - - - -
29/10:20pm 26.8 E 16 17 1015.1 - - - Partly cloudy 10 - - - -
29/10:10pm 26.8 E 16 17 1015.1 - - - Partly cloudy 10 - - - -
29/10:00pm 26.8 E 17 18 1015.1 - - - Partly cloudy 10 - - - -
29/09:50pm 26.9 E 16 19 1015.1 - - - Cloudy 10 - - - -
29/09:40pm 26.7 E 16 15 1015.1 - - - Partly cloudy 10 - - - -
29/09:30pm 26.9 E 16 18 1015.1 - - - Partly cloudy 10 - - - -
29/09:20pm 26.7 E 15 16 1015.0 - - - Partly cloudy 10 - - - -
29/09:10pm 26.8 E 16 18 1014.9 - - - Partly cloudy 10 - - - -
29/09:00pm 26.9 E 17 18 1014.8 - - - Partly cloudy 10 - - - -
29/08:50pm 26.7 ESE 16 17 1014.6 - - - Cloudy 10 - - - -
29/08:40pm 26.7 ESE 15 16 1014.5 - - - Partly cloudy 10 - - - -
29/08:30pm 26.7 ESE 15 15 1014.5 - - - Partly cloudy 10 - - - -
29/08:20pm 26.7 E 16 18 1014.4 - - - Partly cloudy 10 - - - -
29/08:10pm 26.7 E 16 17 1014.4 - - - Partly cloudy 10 - - - -
29/08:00pm 26.6 E 15 18 1014.4 - - - Partly cloudy 10 - - - -
29/07:50pm 26.3 E 12 14 1014.3 - - - Partly cloudy 10 - - - -
29/07:40pm 25.8 E 8 11 1014.2 - - - Partly cloudy 10 - - - -
29/07:30pm 25.6 ESE 9 10 1014.1 - - - Partly cloudy 10 - - - -
29/07:20pm 25.7 SE 11 10 1014.0 - - - Partly cloudy 10 - - - -
29/07:10pm 25.9 ESE 12 12 1013.9 - - - Partly cloudy 10 - - - -
29/07:00pm 25.9 ESE 12 13 1013.8 - - - Partly cloudy 10 - - - -
29/06:50pm 26.5 ESE 14 15 1013.6 - - - Partly cloudy 10 - - - -
29/06:40pm 26.2 E 8 10 1013.6 - - - Partly cloudy 10 - - - -
29/06:30pm 26.3 SE 8 9 1013.5 - - - Partly cloudy 10 - - - -
29/06:20pm 26.3 ESE 8 10 1013.4 - - - Partly cloudy 10 - - - -
29/06:10pm 26.8 ESE 10 9 1013.3 - - - Partly cloudy 10 - - - -
29/06:00pm 27.4 ESE 10 11 1013.2 - - - Partly cloudy 10 - - - -
29/05:50pm 28.0 ESE 11 12 1013.0 - - - Partly cloudy 10 - - - -
29/05:40pm 27.3 ESE 11 12 1012.9 - - - - 10 - - - -
29/05:30pm 28.1 ESE 12 11 1012.8 - - - Partly cloudy 10 - - - -
29/05:20pm 27.9 ESE 12 13 1012.7 - - - Partly cloudy 10 - - - -
29/05:10pm 27.4 ESE 13 14 1012.6 - - - Partly cloudy 10 - - - -
29/05:00pm 26.5 ESE 11 14 1012.6 - - - Partly cloudy 10 - - - -
29/04:50pm 26.4 ESE 8 13 1012.7 - - - Partly cloudy 10 - - - -
29/04:40pm 26.0 ESE 10 10 1012.7 - - - Partly cloudy 10 - - - -
29/04:30pm 26.2 ESE 10 11 1012.6 - - - Partly cloudy 10 - - - -
29/04:20pm 25.8 SE 10 10 1012.6 - - - Partly cloudy 10 - - - -
29/04:10pm 25.4 SE 11 13 1012.6 - - - Partly cloudy 10 - - - -
29/04:00pm 25.1 SE 17 13 1012.6 - - - Partly cloudy 10 - - - -
29/03:50pm 26.6 ESE 18 22 1012.7 - - - Partly cloudy 10 - - - -
29/03:40pm 26.9 E 11 14 1012.7 - - - Partly cloudy 10 - - - -
29/03:30pm 25.9 E 12 12 1012.8 - - - Partly cloudy 10 - - - -
29/03:20pm 26.3 ESE 8 11 1012.9 - - - Partly cloudy 10 - - - -
29/03:10pm 27.5 ESE 8 9 1013.0 - - - Partly cloudy 10 - - - -
29/03:00pm 28.9 ESE 9 9 1013.0 - - - Partly cloudy 10 - - - -
29/02:50pm 27.8 ESE 7 9 1013.0 - - - Partly cloudy 10 - - - -
29/02:40pm 28.7 ESE 9 11 1013.2 - - - Partly cloudy 10 - - - -
29/02:30pm 28.3 ESE 10 11 1013.3 - - - Partly cloudy 10 - - - -
29/02:20pm 28.8 ESE 9 12 1013.5 - - - Partly cloudy 10 - - - -
29/02:10pm 28.1 ESE 9 11 1013.6 - - - Partly cloudy 10 - - - -
29/02:00pm 27.8 ESE 9 9 1013.6 - - - Partly cloudy 10 - - - -
29/01:50pm 28.0 ESE 8 9 1013.8 - - - Partly cloudy 10 - - - -
29/01:40pm 27.4 ESE 7 9 1014.0 - - - Partly cloudy 10 - - - -
29/01:20pm 27.9 E 9 11 1014.3 - - - Partly cloudy 10 - - - -
29/01:10pm 27.8 ESE 9 9 1014.4 - - - Partly cloudy 10 - - - -
29/01:00pm 27.5 E 9 10 1014.5 - - - Partly cloudy 10 - - - -
29/12:50pm 27.8 E 9 11 1014.7 - - - Partly cloudy 10 - - - -
29/12:40pm 29.0 E 10 10 1014.9 - - - - 10 - - - -
29/12:30pm 27.5 E 9 10 1015.0 - - - Partly cloudy 10 - - - -
29/12:20pm 27.4 E 7 10 1015.2 - - - Partly cloudy 10 - - - -
29/12:10pm 27.5 E 7 9 1015.3 - - - Partly cloudy 10 - - - -
29/12:00pm 27.3 E 8 9 1015.4 - - - Partly cloudy 10 - - - -
29/11:50am 27.5 E 9 8 1015.5 - - - Partly cloudy 10 - - - -
29/11:40am 28.0 E 9 11 1015.7 - - - - 10 - - - -
29/11:30am 27.6 E 9 10 1015.9 - - - - 10 - - - -
29/11:20am 27.8 E 9 10 1016.1 - - - - 10 - - - -
29/11:10am 27.8 E 10 11 1016.2 - - - - 10 - - - -
29/11:00am 27.3 E 8 11 1016.2 - - - Partly cloudy 10 - - - -
29/10:50am 28.2 E 9 10 1016.3 - - - - 10 - - - -
29/10:40am 27.2 E 8 10 1016.2 - - - - 10 - - - -
29/10:30am 27.0 E 7 9 1016.2 - - - - 10 - - - -
29/10:20am 27.2 E 8 11 1016.3 - - - - 10 - - - -
29/10:10am 27.6 E 10 10 1016.4 - - - - 10 - - - -
29/10:00am 27.3 E 11 12 1016.4 - - - - 10 - - - -
29/09:50am 27.5 E 10 12 1016.4 - - - - 10 - - - -
29/09:40am 27.1 E 10 11 1016.4 - - - - 10 - - - -
29/09:30am 27.8 E 11 11 1016.2 - - - Partly cloudy 10 - - - -
29/09:10am 27.2 E 12 14 1016.1 - - - - 10 - - - -
29/09:00am 26.9 E 12 13 1016.0 - - - - 10 - - - -
29/08:50am 27.1 E 11 14 1016.0 - - - - 10 - - - -
29/08:40am 27.3 E 12 14 1015.9 - - - - 10 - - - -
29/08:30am 26.8 E 12 13 1015.8 - - - - 10 - - - -
29/08:20am 26.7 E 12 14 1015.5 - - - - 10 - - - -
29/08:10am 26.6 E 12 13 1015.3 - - - - 10 - - - -
29/08:00am 26.2 E 11 12 1015.2 - - - - 10 - - - -
29/07:50am 26.0 E 11 13 1015.1 - - - - 10 - - - -
29/07:40am 26.0 E 12 13 1015.1 - - - - 10 - - - -
29/07:30am 26.0 E 12 14 1014.9 - - - - 10 - - - -
29/07:20am 25.9 E 12 12 1014.9 - - - Partly cloudy 10 - - - -
29/07:10am 25.9 E 11 15 1014.7 - - - Partly cloudy 10 - - - -
29/07:00am 25.9 E 10 11 1014.6 - - - Partly cloudy 10 - - - -
29/06:50am 25.8 E 11 14 1014.6 - - - Partly cloudy 10 - - - -
29/06:40am 25.9 E 12 15 1014.5 - - - Partly cloudy 10 - - - -
29/06:30am 25.9 E 10 11 1014.5 - - - Partly cloudy 10 - - - -
29/06:20am 26.0 E 11 14 1014.4 - - - Partly cloudy 10 - - - -
29/06:10am 25.9 ESE 13 13 1014.3 - - - Partly cloudy 10 - - - -
29/06:00am 26.1 ESE 15 15 1014.2 - - - Partly cloudy 10 - - - -
29/05:50am 26.0 ESE 14 14 1014.1 - - - - 10 - - - -
29/05:40am 26.0 ESE 14 15 1014.0 - - - - 10 - - - -
29/05:30am 26.1 ESE 14 17 1013.9 - - - - 10 - - - -
29/05:20am 26.0 ESE 15 16 1013.9 - - - - 10 - - - -
29/05:10am 26.1 ESE 14 16 1013.9 - - - - 10 - - - -
29/05:00am 25.9 ESE 13 15 1013.8 - - - - 10 - - - -
29/04:50am 26.0 ESE 13 15 1013.8 - - - - 10 - - - -
29/04:40am 26.0 ESE 11 13 1013.9 - - - Partly cloudy 10 - - - -
29/04:30am 26.0 ESE 15 16 1014.1 - - - Partly cloudy 10 - - - -
29/04:20am 26.1 ESE 15 17 1014.1 - - - Partly cloudy 10 - - - -
29/04:10am 26.1 ESE 14 13 1014.0 - - - - 10 - - - -
29/04:00am 26.1 ESE 16 16 1013.9 - - - - 10 - - - -
29/03:50am 26.2 ESE 16 18 1013.9 - - - - 10 - - - -
29/03:40am 26.1 ESE 16 18 1013.9 - - - - 10 - - - -
29/03:30am 26.1 ESE 16 18 1013.9 - - - - 10 - - - -
29/03:20am 26.1 ESE 15 16 1013.9 - - - - 10 - - - -
29/03:10am 26.2 ESE 15 17 1014.0 - - - - 10 - - - -
29/03:00am 26.1 ESE 15 16 1014.1 - - - - 10 - - - -
29/02:50am 26.1 ESE 15 17 1014.0 - - - - 10 - - - -
29/02:40am 26.1 SE 15 16 1014.1 - - - - 10 - - - -
29/02:30am 26.1 SE 15 16 1014.2 - - - - 10 - - - -
29/02:20am 26.1 SE 15 16 1014.3 - - - - 10 - - - -
29/02:10am 26.1 SE 14 15 1014.4 - - - - 10 - - - -
29/02:00am 26.1 SE 14 13 1014.5 - - - - 10 - - - -
29/01:50am 26.1 SE 14 15 1014.6 - - - - 10 - - - -
29/01:40am 26.2 ESE 15 16 1014.6 - - - - 10 - - - -
29/01:30am 26.2 SE 14 16 1014.6 - - - - 10 - - - -
29/01:20am 26.2 ESE 14 14 1014.6 - - - - 10 - - - -
29/01:10am 26.2 SE 14 15 1014.7 - - - - 10 - - - -
29/01:00am 26.3 SE 14 15 1014.7 - - - Partly cloudy 10 - - - -
29/12:50am 26.3 ESE 14 16 1014.7 - - - Partly cloudy 10 - - - -
29/12:40am 26.3 SE 15 15 1014.7 - - - Partly cloudy 10 - - - -
29/12:30am 26.3 SE 15 16 1014.6 - - - Partly cloudy 10 - - - -
29/12:20am 26.4 SE 14 16 1014.7 - - - Partly cloudy 10 - - - -
29/12:10am 26.5 SE 15 16 1014.7 - - - Partly cloudy 10 - - - -
29/12:00am 26.5 SE 15 16 1014.8 - - - Cloudy 10 - - - -
 
Date/Time
CST
Temp

°C
Wind Pressure Rain
since 9am
mm
Weather Cloud Vis
km
Sea
Height
m
Swell
Dir
 
Speed
knots
Gust
knots
hPa Trend Height
m
Period
s
Dir
28/11:50pm 26.6 SE 16 17 1014.8 - - - Cloudy 10 - - - -
28/11:40pm 26.7 SE 15 17 1014.8 - - - Cloudy 10 - - - -
28/11:30pm 26.6 SE 15 15 1014.9 - - - Cloudy 10 - - - -
28/11:20pm 26.6 SE 15 16 1014.9 - - - Cloudy 10 - - - -
28/11:10pm 26.6 SE 15 17 1014.9 - - - Partly cloudy 10 - - - -
28/11:00pm 26.7 SE 16 16 1014.9 - - - Cloudy 10 - - - -
28/10:50pm 26.6 SE 16 18 1015.0 - - - Cloudy 10 - - - -
28/10:40pm 26.6 SE 16 16 1015.0 - - - Partly cloudy 10 - - - -
28/10:30pm 26.7 SE 15 18 1015.0 - - - Partly cloudy 10 - - - -
28/10:20pm 26.7 SE 16 16 1015.1 - - - Partly cloudy 10 - - - -
28/10:10pm 26.7 SE 16 18 1015.0 - - - Partly cloudy 10 - - - -
28/10:00pm 26.8 SE 15 18 1015.0 - - - Partly cloudy 10 - - - -
28/09:50pm 26.7 ESE 14 13 1015.0 - - - Partly cloudy 10 - - - -
28/09:40pm 26.7 ESE 14 15 1015.1 - - - Cloudy 10 - - - -
28/09:30pm 26.8 ESE 15 16 1015.0 - - - Cloudy 10 - - - -
28/09:20pm 26.8 ESE 15 16 1014.9 - - - Cloudy 10 - - - -
28/09:10pm 26.9 ESE 15 16 1014.9 - - - Cloudy 10 - - - -
28/09:00pm 26.8 ESE 16 16 1014.8 - - - Cloudy 10 - - - -
28/08:50pm 26.8 ESE 16 17 1014.7 - - - Cloudy 10 - - - -
28/08:40pm 26.8 ESE 16 17 1014.6 - - - Cloudy 10 - - - -
28/08:30pm 26.8 ESE 17 17 1014.4 - - - Cloudy 10 - - - -
28/08:20pm 26.9 ESE 16 17 1014.4 - - - Cloudy 10 - - - -
28/08:00pm 27.0 ESE 17 19 1014.2 - - - Partly cloudy 10 - - - -
28/07:50pm 27.0 ESE 17 17 1014.1 - - - Partly cloudy 10 - - - -
28/07:40pm 27.0 ESE 16 19 1014.0 - - - Partly cloudy 10 - - - -
28/07:30pm 27.0 ESE 14 15 1013.9 - - - Partly cloudy 10 - - - -
28/07:20pm 27.1 SE 13 15 1013.9 - - - Partly cloudy 10 - - - -
28/07:10pm 27.1 SE 13 12 1013.8 - - - Partly cloudy 10 - - - -
28/07:00pm 27.2 SE 14 16 1013.6 - - - Partly cloudy 10 - - - -
28/06:50pm 27.8 SE 14 15 1013.5 - - - Partly cloudy 10 - - - -
28/06:40pm 27.5 ESE 12 16 1013.4 - - - Partly cloudy 10 - - - -
28/06:30pm 27.9 ESE 11 11 1013.3 - - - Partly cloudy 10 - - - -
28/06:20pm 28.8 ESE 11 12 1013.2 - - - Partly cloudy 10 - - - -
28/06:10pm 28.0 ESE 11 12 1013.2 - - - Partly cloudy 10 - - - -
28/06:00pm 26.9 ESE 10 11 1013.1 - - - Partly cloudy 10 - - - -
28/05:50pm 28.5 ESE 12 12 1013.0 - - - Partly cloudy 10 - - - -
28/05:40pm 28.2 ESE 12 13 1012.9 - - - - 10 - - - -
28/05:30pm 27.8 ESE 11 13 1012.9 - - - - 10 - - - -
28/05:20pm 27.8 ESE 10 11 1012.8 - - - - 10 - - - -
28/05:10pm 27.5 ESE 9 11 1012.7 - - - - 10 - - - -
28/05:00pm 28.0 ESE 11 11 1012.6 - - - - 10 - - - -
28/04:50pm 28.6 ESE 11 11 1012.6 - - - Partly cloudy 10 - - - -
28/04:40pm 28.0 ESE 10 13 1012.5 - - - Partly cloudy 10 - - - -
28/04:30pm 27.9 ESE 11 13 1012.5 - - - Partly cloudy 10 - - - -
28/04:20pm 27.3 E 8 12 1012.4 - - - Partly cloudy 10 - - - -
28/04:10pm 27.8 ESE 10 9 1012.4 - - - Partly cloudy 10 - - - -
28/04:00pm 28.4 ESE 9 11 1012.5 - - - Partly cloudy 10 - - - -
28/03:50pm 27.6 ESE 8 10 1012.6 - - - Partly cloudy 10 - - - -
28/03:40pm 27.5 E 7 11 1012.6 - - - Partly cloudy 10 - - - -
28/03:30pm 27.5 E 7 9 1012.8 - - - Partly cloudy 10 - - - -
28/03:20pm 27.6 ESE 8 12 1012.8 - - - Partly cloudy 10 - - - -
28/03:10pm 28.7 ESE 8 11 1012.9 - - - Partly cloudy 10 - - - -
28/03:00pm 27.4 ESE 7 7 1013.0 - - - - 10 - - - -
28/02:50pm 27.5 ESE 8 10 1013.1 - - - - 10 - - - -
28/02:40pm 27.4 ESE 8 11 1013.2 - - - - 10 - - - -
28/02:30pm 27.4 ESE 9 8 1013.5 - - - - 10 - - - -
28/02:20pm 27.5 E 8 11 1013.7 - - - - 10 - - - -
28/02:10pm 27.6 ESE 9 11 1013.7 - - - - 10 - - - -
28/02:00pm 27.5 ESE 8 10 1013.9 - - - - 10 - - - -
28/01:50pm 27.4 E 7 11 1014.1 - - - - 10 - - - -
28/01:40pm 27.4 E 9 12 1014.3 - - - - 10 - - - -
28/01:30pm 27.4 E 7 10 1014.5 - - - Partly cloudy 10 - - - -
28/01:20pm 27.2 E 7 10 1014.7 - - - Partly cloudy 10 - - - -
28/01:10pm 27.4 E 9 10 1014.8 - - - Partly cloudy 10 - - - -
28/01:00pm 27.2 E 8 10 1014.9 - - - Partly cloudy 10 - - - -
28/12:50pm 27.2 E 8 9 1015.1 - - - Partly cloudy 10 - - - -
28/12:40pm 27.3 E 9 12 1015.2 - - - Partly cloudy 10 - - - -
28/12:30pm 28.1 E 11 14 1015.4 - - - Partly cloudy 10 - - - -
28/12:20pm 27.4 E 9 12 1015.4 - - - Partly cloudy 10 - - - -
28/12:10pm 27.4 E 10 12 1015.6 - - - Partly cloudy 10 - - - -
28/12:00pm 27.3 E 9 12 1015.7 - - - Partly cloudy 10 - - - -
28/11:50am 27.3 E 9 10 1015.8 - - - Partly cloudy 10 - - - -
28/11:30am 27.1 E 10 12 1015.9 - - - Partly cloudy 10 - - - -
28/11:20am 27.0 E 10 13 1015.9 - - - - 10 - - - -
28/11:10am 27.0 E 8 14 1015.9 - - - - 10 - - - -
28/11:00am 27.1 E 9 11 1016.1 - - - - 10 - - - -
28/10:50am 26.9 E 10 12 1016.1 - - - - 10 - - - -
28/10:40am 27.1 E 8 12 1016.2 - - - - 10 - - - -
28/10:30am 27.0 E 8 11 1016.2 - - - - 10 - - - -
28/10:20am 27.0 E 8 12 1016.2 - - - - 10 - - - -
28/10:10am 26.9 E 8 9 1016.3 - - - - 10 - - - -
28/10:00am 27.0 E 9 12 1016.3 - - - - 10 - - - -
28/09:50am 26.9 E 9 12 1016.2 - - - - 10 - - - -
28/09:40am 26.8 E 8 11 1016.1 - - - - 10 - - - -
28/09:30am 26.8 E 8 12 1016.1 - - - - 10 - - - -
28/09:20am 26.7 E 8 12 1016.0 - - - Partly cloudy 10 - - - -
28/09:10am 26.7 E 9 10 1016.0 - - - Partly cloudy 10 - - - -
28/09:00am 26.7 E 10 9 1015.9 - - - Partly cloudy 10 - - - -
28/08:50am 26.8 E 10 13 1015.8 - - - Partly cloudy 10 - - - -
28/08:40am 26.9 E 11 11 1015.8 - - - Cloudy 10 - - - -
28/08:30am 26.5 E 12 12 1015.7 - - - Cloudy 10 - - - -
28/08:20am 26.6 E 12 12 1015.7 - - - Partly cloudy 10 - - - -
28/08:10am 26.5 E 11 12 1015.6 - - - Partly cloudy 10 - - - -
28/08:00am 26.3 E 12 12 1015.4 - - - Partly cloudy 10 - - - -
28/07:50am 26.2 E 11 13 1015.4 - - - Cloudy 10 - - - -
28/07:40am 26.1 E 11 14 1015.3 - - - Partly cloudy 10 - - - -
28/07:30am 25.9 E 10 11 1015.3 - - - Partly cloudy 10 - - - -
28/07:20am 26.0 E 13 15 1015.2 - - - Partly cloudy 10 - - - -
28/07:10am 26.0 E 13 14 1015.2 - - - Partly cloudy 10 - - - -
28/07:00am 26.0 E 10 13 1015.2 - - - Partly cloudy 10 - - - -
28/06:50am 26.0 E 11 11 1015.0 - - - Partly cloudy 10 - - - -
28/06:40am 25.9 E 10 13 1014.9 - - - Partly cloudy 10 - - - -
28/06:30am 26.1 E 12 15 1014.9 - - - Partly cloudy 10 - - - -
28/06:20am 26.0 E 11 13 1014.8 - - - Partly cloudy 10 - - - -
28/06:10am 26.0 E 12 13 1014.8 - - - Partly cloudy 10 - - - -
28/06:00am 26.0 E 12 15 1014.7 - - - Partly cloudy 10 - - - -
28/05:50am 26.0 E 11 15 1014.5 - - - Partly cloudy 10 - - - -
28/05:40am 25.9 E 11 15 1014.5 - - - Partly cloudy 10 - - - -
28/05:30am 26.1 E 13 16 1014.4 - - - Partly cloudy 10 - - - -
28/05:20am 25.9 E 11 14 1014.4 - - - Partly cloudy 10 - - - -
28/05:10am 25.9 E 13 13 1014.3 - - - Partly cloudy 10 - - - -
28/05:00am 26.0 ESE 12 17 1014.3 - - - Partly cloudy 10 - - - -
28/04:50am 26.0 ESE 13 16 1014.3 - - - Partly cloudy 10 - - - -
28/04:40am 25.8 E 11 15 1014.3 - - - Partly cloudy 10 - - - -
28/04:30am 25.8 E 11 15 1014.4 - - - Partly cloudy 10 - - - -
28/04:20am 25.9 ESE 12 15 1014.3 - - - Partly cloudy 10 - - - -
28/04:00am 25.9 ESE 12 13 1014.3 - - - Partly cloudy 10 - - - -
28/03:50am 25.9 ESE 12 16 1014.3 - - - Partly cloudy 10 - - - -
28/03:40am 25.9 ESE 11 15 1014.4 - - - Partly cloudy 10 - - - -
28/03:30am 26.1 E 12 15 1014.4 - - - Partly cloudy 10 - - - -
28/03:20am 25.9 E 12 14 1014.5 - - - Partly cloudy 10 - - - -
28/03:10am 25.9 E 11 13 1014.6 - - - Partly cloudy 10 - - - -
28/03:00am 26.0 E 11 16 1014.7 - - - Partly cloudy 10 - - - -
28/02:50am 26.0 E 12 15 1014.8 - - - Partly cloudy 10 - - - -
28/02:40am 26.0 E 11 17 1014.9 - - - Partly cloudy 10 - - - -
28/02:30am 26.0 E 12 14 1014.9 - - - Cloudy 10 - - - -
28/02:20am 26.0 ESE 11 14 1015.0 - - - Partly cloudy 10 - - - -
28/02:10am 25.9 ESE 12 15 1015.1 - - - Partly cloudy 10 - - - -
28/02:00am 26.0 ESE 14 15 1015.2 - - - Partly cloudy 10 - - - -
28/01:50am 26.1 ESE 10 13 1015.3 - - - Partly cloudy 10 - - - -
28/01:40am 26.3 ESE 14 15 1015.5 - - - Partly cloudy 10 - - - -
28/01:30am 26.2 E 12 16 1015.6 - - - Partly cloudy 10 - - - -
28/01:20am 26.1 E 10 14 1015.6 - - - Partly cloudy 10 - - - -
28/01:10am 26.1 E 10 14 1015.6 - - - Partly cloudy 10 - - - -
28/01:00am 26.2 E 10 14 1015.6 - - - Partly cloudy 10 - - - -
28/12:50am 26.2 E 9 15 1015.6 - - - Partly cloudy 10 - - - -
28/12:40am 26.2 E 10 13 1015.7 - - - Partly cloudy 10 - - - -
28/12:30am 26.2 E 10 13 1015.7 - - - Partly cloudy 10 - - - -
28/12:20am 26.2 E 10 15 1015.7 - - - Cloudy 10 - - - -
28/12:10am 26.2 E 10 14 1015.8 - - - Cloudy 10 - - - -
28/12:00am 26.3 E 10 13 1015.8 - - - Partly cloudy 10 - - - -
 
Date/Time
CST
Temp

°C
Wind Pressure Rain
since 9am
mm
Weather Cloud Vis
km
Sea
Height
m
Swell
Dir
 
Speed
knots
Gust
knots
hPa Trend Height
m
Period
s
Dir
27/11:50pm 26.3 E 11 15 1015.8 - - - Partly cloudy 10 - - - -
27/11:40pm 26.4 ESE 11 14 1015.8 - - - Partly cloudy 10 - - - -
27/11:30pm 26.6 ESE 12 14 1015.8 - - - Partly cloudy 10 - - - -
27/11:20pm 26.5 ESE 14 15 1015.9 - - - Partly cloudy 10 - - - -
27/11:10pm 26.6 ESE 13 18 1015.9 - - - Partly cloudy 10 - - - -
27/11:00pm 26.6 ESE 14 15 1015.9 - - - Partly cloudy 10 - - - -
27/10:50pm 26.6 ESE 15 13 1015.9 - - - Partly cloudy 10 - - - -
27/10:40pm 26.7 ESE 15 16 1015.8 - - - - 10 - - - -
27/10:30pm 26.7 ESE 15 15 1015.8 - - - - 10 - - - -
27/10:20pm 26.7 ESE 15 18 1015.8 - - - - 10 - - - -
27/10:10pm 26.6 ESE 15 15 1015.8 - - - Partly cloudy 10 - - - -
27/10:00pm 26.7 ESE 16 18 1015.7 - - - Partly cloudy 10 - - - -
27/09:50pm 26.7 ESE 15 17 1015.6 - - - Partly cloudy 10 - - - -
27/09:40pm 26.6 ESE 14 15 1015.6 - - - Partly cloudy 10 - - - -
27/09:30pm 26.6 ESE 15 16 1015.6 - - - Cloudy 10 - - - -
27/09:20pm 26.6 ESE 14 15 1015.6 - - - Cloudy 10 - - - -
27/09:10pm 26.8 ESE 16 16 1015.5 - - - Cloudy 10 - - - -
27/09:00pm 26.6 ESE 13 17 1015.5 - - - Cloudy 10 - - - -
27/08:50pm 26.8 ESE 16 17 1015.5 - - - Partly cloudy 10 - - - -
27/08:30pm 26.7 ESE 11 18 1015.2 - - - Partly cloudy 10 - - - -
27/08:20pm 26.6 ESE 14 14 1015.1 - - - Partly cloudy 10 - - - -
27/08:10pm 26.7 ESE 14 15 1015.0 - - - Partly cloudy 10 - - - -
27/08:00pm 26.5 ESE 11 12 1015.0 - - - Partly cloudy 10 - - - -
27/07:50pm 26.5 ESE 11 12 1015.0 - - - Cloudy 10 - - - -
27/07:40pm 26.3 SE 11 12 1014.9 - - - Partly cloudy 10 - - - -
27/07:30pm 26.2 SE 10 10 1014.8 - - - Partly cloudy 10 - - - -
27/07:20pm 26.1 SE 14 12 1014.7 - - - Partly cloudy 10 - - - -
27/07:10pm 26.4 SE 19 21 1014.5 - - - Partly cloudy 10 - - - -
27/07:00pm 26.8 SE 12 14 1014.4 - - - Partly cloudy 10 - - - -
27/06:50pm 26.9 SE 12 11 1014.3 - - - Partly cloudy 10 - - - -
27/06:40pm 27.0 SE 13 14 1014.1 - - - Partly cloudy 10 - - - -
27/06:30pm 27.0 ESE 13 14 1014.0 - - - Cloudy 10 - - - -
27/06:20pm 27.1 ESE 13 13 1013.9 - - - Cloudy 10 - - - -
27/06:10pm 26.9 ESE 13 15 1014.0 - - - Cloudy 10 - - - -
27/06:00pm 27.1 ESE 13 13 1013.9 - - - Cloudy 10 - - - -
27/05:50pm 27.5 ESE 13 15 1013.8 - - - Cloudy 10 - - - -
27/05:40pm 27.2 ESE 13 13 1013.8 - - - Partly cloudy 10 - - - -
27/05:30pm 27.4 ESE 13 14 1013.7 - - - Partly cloudy 10 - - - -
27/05:20pm 26.8 ESE 12 15 1013.6 - - - Partly cloudy 10 - - - -
27/05:10pm 26.7 ESE 10 13 1013.5 - - - Cloudy 10 - - - -
27/05:00pm 26.7 ESE 11 10 1013.4 - - - Cloudy 10 - - - -
27/04:50pm 27.3 ESE 13 14 1013.3 - - - Cloudy 10 - - - -
27/04:40pm 26.9 ESE 10 14 1013.3 - - - Cloudy 10 - - - -
27/04:30pm 27.3 ESE 10 12 1013.3 - - - Cloudy 10 - - - -
27/04:20pm 26.8 ESE 8 10 1013.3 - - - Partly cloudy 10 - - - -
27/04:10pm 26.8 ESE 9 13 1013.4 - - - Partly cloudy 10 - - - -
27/04:00pm 27.4 ESE 9 14 1013.5 - - - Partly cloudy 10 - - - -
27/03:50pm 27.1 ESE 8 13 1013.5 - - - Partly cloudy 10 - - - -
27/03:40pm 27.0 ESE 8 11 1013.6 - - - Partly cloudy 10 - - - -
27/03:30pm 27.0 ESE 7 8 1013.7 - - - Cloudy 10 - - - -
27/03:20pm 26.9 E 8 8 1013.8 - - - Cloudy 10 - - - -
27/03:10pm 26.7 ESE 7 11 1013.8 - - - Cloudy 10 - - - -
27/03:00pm 26.7 E 10 11 1013.9 - - - Cloudy 10 - - - -
27/02:50pm 26.9 ESE 9 13 1014.0 - - - Cloudy 10 - - - -
27/02:40pm 27.4 SE 11 13 1014.2 - - - Cloudy 10 - - - -
27/02:30pm 28.5 SE 12 13 1014.3 - - - Cloudy 10 - - - -
27/02:20pm 27.7 SE 11 13 1014.4 - - - Partly cloudy 10 - - - -
27/02:10pm 27.0 ESE 8 8 1014.6 - - - Partly cloudy 10 - - - -
27/02:00pm 27.1 ESE 9 13 1014.7 - - - Partly cloudy 10 - - - -
27/01:50pm 27.1 ESE 10 11 1014.9 - - - Partly cloudy 10 - - - -
27/01:40pm 28.0 ESE 11 14 1014.9 - - - Partly cloudy 10 - - - -
27/01:30pm 27.7 ESE 10 15 1015.1 - - - Partly cloudy 10 - - - -
27/01:20pm 27.2 ESE 11 14 1015.2 - - - Partly cloudy 10 - - - -
27/01:10pm 27.3 ESE 10 15 1015.3 - - - Partly cloudy 10 - - - -
27/01:00pm 27.4 ESE 11 13 1015.5 - - - Partly cloudy 10 - - - -
27/12:50pm 27.7 ESE 10 14 1015.7 - - - Partly cloudy 10 - - - -
27/12:40pm 27.1 ESE 9 12 1015.9 - - - Partly cloudy 10 - - - -

Other Formats:

Comma delimited format used in spreadsheet applications
http://www.bom.gov.au/fwo/IDD60701/IDD60701.95100.axf

JavaScript Object Notation format (JSON) in row-major order
http://www.bom.gov.au/fwo/IDD60701/IDD60701.95100.json